Location: Prairie Dale
(45.6972°N, 104.5033°W)
Time: 06:44:09
(UTC+00:00)

Envisat - Pass Details

Date: 22 January 2022
Orbit: 764 x 765 km, 98.2° (Epoch: 16 May)

Event Time Altitude Azimuth Distance (km) Brightness Sun altitude
Rises 13:26:59 0° 359° (N) 3,242 6.1 -11.0°
Reaches altitude 10° 13:30:00 10° 341° (NNW) 2,311 5.1 -10.5°
Maximum altitude 13:33:15 17° 301° (WNW) 1,845 4.4 -9.9°
Drops below altitude 10° 13:36:30 10° 260° (W) 2,302 4.9 -9.4°
Sets 13:39:30 0° 242° (WSW) 3,224 5.8 -8.9°
